Location: Ferintosh
(52.7647°N, 112.9692°W)
Time: 00:51:28
(UTC+00:00)

S-56A Canister/Altair - Pass Details

Date: 27 May 2024
Orbit: 637 x 2489 km, 38.9° (Epoch: 20 June)

Event Time Altitude Azimuth Distance (km) Brightness Sun altitude
Rises 14:13:59 0° 248° (WSW) 5,963 11.5 23.6°
Reaches altitude 10° 14:18:31 10° 242° (WSW) 4,771 11.1 24.3°
Maximum altitude 14:29:46 38° 182° (S) 2,491 10.4 26.0°
Drops below altitude 10° 14:37:53 10° 118° (ESE) 3,436 12.0 27.2°
Sets 14:40:36 0° 110° (ESE) 4,172 12.4 27.6°
